This demonstration page uses our WeatherBlox Daily Observations layout. Learn more.

Left ArrowRight Arrow

Hourly Observations for January 3, 2018

Temp ( °F °C ) Dew Point ( °F °C ) Humidity (%) Winds ( mph kmh ) Pressure ( in mb ) Visibility ( mi km ) Precip ( " mm )
12:56 am 00:56 Clear 22 -5.6 14 -10 71 71 NW 12 19 30.32 1027 10 16 0.00 0.00
1:56 am 01:56 Clear 23 -5 15 -9.4 72 72 NW 16 26 30.32 1027 10 16 0.00 0.00
2:56 am 02:56 Clear 20 -6.7 14 -10 78 78 NW 12 19 30.35 1028 10 16 0.00 0.00
3:56 am 03:56 Partly Cloudy 21 -6.1 15 -9.4 78 78 NNW 18 30 30.36 1028 10 16 0.00 0.00
4:06 am 04:06 Mostly Cloudy 21 -6 16 -9 80 80 NNW 21 33 30.42 1030 10 16 0.00 0.00
4:56 am 04:56 Cloudy 22 -5.6 16 -8.9 78 78 N 15 24 30.36 1028 10 16 0.00 0.00
5:56 am 05:56 Cloudy 22 -5.6 16 -8.9 78 78 N 18 30 30.38 1029 10 16 0.00 0.00
6:56 am 06:56 Cloudy 21 -6.1 15 -9.4 78 78 NNW 9 15 30.40 1029 10 16 0.00 0.00
7:56 am 07:56 Mostly Cloudy 19 -7.2 13 -10.6 77 77 NNW 13 20 30.40 1030 10 16 0.00 0.00
8:56 am 08:56 Cloudy 21 -6.1 14 -10 74 74 NNW 10 17 30.41 1030 10 16 0.00 0.00
9:56 am 09:56 Cloudy 22 -5.6 15 -9.4 75 75 NNW 7 11 30.44 1031 10 16 0.00 0.00
10:56 am 10:56 Cloudy 26 -3.3 17 -8.3 69 69 NNW 8 13 30.44 1031 10 16 0.00 0.00
11:56 am 11:56 Cloudy 29 -1.7 18 -7.8 63 63 NNW 7 11 30.41 1030 10 16 0.00 0.00
12:13 pm 12:13 Partly Cloudy 30 -1 18 -8 59 59 N 6 9 30.42 1030 10 16 0.00 0.00
12:56 pm 12:56 Mostly Sunny 30 -1.1 18 -7.8 61 61 N 5 7 30.38 1029 10 16 0.00 0.00
1:56 pm 13:56 Sunny 31 -0.6 19 -7.2 61 61 NW 8 13 30.35 1028 10 16 0.00 0.00
2:56 pm 14:56 Sunny 28 -2.2 18 -7.8 66 66 WNW 8 13 30.35 1028 10 16 0.00 0.00
3:56 pm 15:56 Sunny 29 -1.7 20 -6.7 69 69 WNW 6 9 30.35 1028 10 16 0.00 0.00
4:56 pm 16:56 Sunny 27 -2.8 18 -7.8 69 69 WNW 6 9 30.34 1027 10 16 0.00 0.00
5:56 pm 17:56 Clear 21 -6.1 15 -9.4 78 78 W 3 6 30.34 1028 10 16 0.00 0.00
6:56 pm 18:56 Clear 19 -7.2 16 -8.9 88 88 SW 5 7 30.35 1028 10 16 0.00 0.00
7:56 pm 19:56 Clear 15 -9.4 13 -10.6 91 91 Calm 30.36 1028 10 16 0.00 0.00
8:56 pm 20:56 Clear 15 -9.4 12 -11.1 88 88 Calm 30.36 1028 10 16 0.00 0.00
9:56 pm 21:56 Clear 13 -10.6 10 -12.2 88 88 NNE 5 7 30.37 1028 10 16 0.00 0.00
10:56 pm 22:56 Clear 12 -11.1 9 -12.8 87 87 Calm 30.37 1029 10 16 0.00 0.00
11:56 pm 23:56 Clear 13 -10.6 10 -12.2 88 88 Calm 30.36 1028 10 16 0.00 0.00

Powered by AerisWeather